Content
SEND FEEDBACK

Daily
Averages
Monthly
Summary
United States of America

ANN ARBOR, MICHIGAN


Home > North America > United States > Michigan
Elevation: 759 feet     Latitude: 42 17N     Longitude: 083 43W

WEATHER
 
SELECT A DAY
Number of Records: 203,923;   Date Range: 1/1/95 - 8/30/14
 
SHARE

PRINT THIS DATA

[ ← Previous Day ]
WEATHER ALMANAC - DECEMBER 31, 2013
[ Next Day → ]
[ °C ]   °F
Weather ElementAverageHighLow
Temperature17 °F19.9 °F (12:53 am)14 °F (6:46 am)
Dewpoint10.6 °F15.8 °F (1:10 am)6.8 °F (10:04 am)
Humidity76.1 %88 % (11:53 pm)62 % (3:53 pm)
Barometer30.17 in30.34 in (10:53 pm)30.03 in (4:43 am)
Wind Speed10.4 mph18.4 mph (3:53 pm)
Wind Gust25.3 mph (10:04 am)
Weather ElementAverage
Visibility4.8 mi
Wind DirectionW (264.4 °)

Weather ElementTotal
Precipitation0.02 in
Heating Degree Days48.1 (Base 65)
Averaged from 59 records on December 31, 2013
WEATHER CONDITIONS BREAKOUT
WIND DIRECTION BREAKOUT
WEATHER BY HOUR - DECEMBER 31, 2013
[ °C ]   °F
Local TimeTemperatureDewpointHumidityBarometerVisibilityWind DirectionWind SpeedGust SpeedPrecipitationEventsConditions
12:46 AM19.4 °F14.0 °F80 %30.07 in2.0 miWest (260°)8.1 mph0.00 inSnowLight Snow
12:53 AM19.9 °F14.0 °F78 %30.11 in2.0 miWSW (250°)10.4 mph0.00 inSnowLight Snow
1:10 AM19.4 °F15.8 °F86 %30.06 in1.2 miWest (260°)8.1 mph0.00 inSnowLight Snow
1:22 AM19.4 °F15.8 °F86 %30.06 in1.8 miWSW (250°)9.2 mph0.00 inSnowLight Snow
1:42 AM19.4 °F14.0 °F80 %30.06 in2.0 miWest (280°)12.7 mph0.00 inSnowLight Snow
1:51 AM19.4 °F12.2 °F74 %30.06 in5.0 miWNW (290°)12.7 mph0.00 inSnowLight Snow
1:53 AM18.0 °F12.9 °F81 %30.10 in6.0 miWNW (290°)10.4 mph0.00 inSnowLight Snow
2:03 AM17.6 °F12.2 °F79 %30.06 in6.0 miWest (270°)11.5 mph0.00 inSnowLight Snow
2:22 AM17.6 °F12.2 °F79 %30.06 in2.0 miWNW (290°)8.1 mph0.00 inSnowLight Snow
2:37 AM17.6 °F12.2 °F79 %30.06 in3.0 miWest (280°)10.4 mph0.00 inSnowLight Snow
2:48 AM17.6 °F12.2 °F79 %30.06 in2.0 miWest (270°)10.4 mph0.00 inSnowLight Snow
2:53 AM17.1 °F12.0 °F81 %30.10 in3.0 miWest (270°)8.1 mph0.00 inSnowLight Snow
3:14 AM17.6 °F10.4 °F73 %30.05 in9.0 miWest (280°)10.4 mph0.00 inOvercast
3:53 AM17.1 °F10.9 °F77 %30.09 in5.0 miWest (260°)10.4 mph0.00 inSnowLight Snow
4:43 AM15.8 °F10.4 °F79 %30.03 in1.8 miWest (260°)9.2 mph0.00 inSnowLight Snow
4:53 AM16.0 °F10.9 °F81 %30.08 in2.0 miWSW (250°)10.4 mph0.00 inSnowLight Snow
5:09 AM15.8 °F10.4 °F79 %30.04 in1.8 miWSW (250°)10.4 mph0.00 inSnowLight Snow
5:18 AM15.8 °F10.4 °F79 %30.04 in3.0 miWSW (250°)12.7 mph0.00 inSnowLight Snow
5:25 AM15.8 °F10.4 °F79 %30.05 in2.5 miWSW (250°)13.8 mph0.00 inSnowLight Snow
5:34 AM15.8 °F10.4 °F79 %30.05 in4.0 miWest (260°)13.8 mph0.00 inSnowLight Snow
5:43 AM15.8 °F10.4 °F79 %30.05 in5.0 miWSW (240°)13.8 mph0.00 inSnowLight Snow
5:53 AM15.1 °F9.0 °F77 %30.10 in6.0 miWest (260°)16.1 mph0.00 inSnowLight Snow
6:46 AM14.0 °F8.6 °F79 %30.08 in10.0 miWest (260°)11.5 mph0.00 inOvercast
6:53 AM14.0 °F9.0 °F80 %30.12 in10.0 miWest (260°)10.4 mph0.00 inOvercast
7:03 AM15.8 °F8.6 °F73 %30.08 in10.0 miWest (260°)9.2 mphOvercast
7:53 AM15.1 °F9.0 °F77 %30.14 in10.0 miWest (280°)11.5 mphOvercast
8:53 AM16.0 °F8.1 °F71 %30.17 in10.0 miWest (280°)16.1 mph21.9 mphOvercast
9:42 AM17.6 °F8.6 °F68 %30.15 in10.0 miWNW (290°)13.8 mph0.00 inOvercast
9:53 AM17.1 °F7.0 °F65 %30.20 in10.0 miWNW (290°)15.0 mph19.6 mph0.00 inOvercast
10:04 AM17.6 °F6.8 °F63 %30.17 in10.0 miWNW (300°)16.1 mph25.3 mph0.00 inSnowLight Snow
10:53 AM17.1 °F9.0 °F71 %30.23 in4.0 miWNW (290°)10.4 mph0.00 inSnowLight Snow
11:07 AM17.6 °F8.6 °F68 %30.19 in6.0 miWNW (290°)10.4 mph0.00 inSnowLight Snow
11:40 AM17.6 °F10.4 °F73 %30.20 in3.0 miWNW (290°)10.4 mph0.00 inSnowLight Snow
11:53 AM18.0 °F10.0 °F71 %30.25 in5.0 miWest (280°)10.4 mph0.00 inSnowLight Snow
12:25 PM17.6 °F10.4 °F73 %30.21 in2.5 miWest (280°)9.2 mph0.00 inSnowLight Snow
12:45 PM17.6 °F10.4 °F73 %30.22 in1.5 miWest (270°)12.7 mph0.00 inSnowLight Snow
12:53 PM17.1 °F10.9 °F77 %30.26 in1.0 miWest (270°)10.4 mph0.00 inSnowLight Snow
1:24 PM17.6 °F12.2 °F79 %30.22 in0.8 miWest (270°)8.1 mph0.00 inSnowLight Snow
1:39 PM17.6 °F12.2 °F79 %30.22 in1.2 miWest (280°)6.9 mph0.00 inSnowLight Snow
1:46 PM17.6 °F12.2 °F79 %30.21 in1.8 miWest (260°)5.8 mph0.00 inSnowLight Snow
1:53 PM18.0 °F12.0 °F78 %30.26 in2.0 miWest (280°)4.6 mph0.00 inSnowLight Snow
1:59 PM17.6 °F12.2 °F79 %30.20 in3.0 miWest (260°)3.5 mph0.00 inSnowLight Snow
2:06 PM19.4 °F12.2 °F74 %30.21 in4.0 miWSW (240°)11.5 mph0.00 inSnowLight Snow
2:32 PM19.4 °F10.4 °F68 %30.21 in10.0 miWSW (250°)13.8 mph23.0 mph0.00 inOvercast
2:53 PM19.0 °F9.0 °F65 %30.25 in10.0 miWSW (250°)17.3 mph0.00 inOvercast
3:53 PM19.0 °F8.1 °F62 %30.25 in10.0 miWSW (250°)18.4 mphMostly Cloudy
4:53 PM17.1 °F7.0 °F65 %30.27 in10.0 miWSW (250°)11.5 mphClear
5:53 PM16.0 °F7.0 °F68 %30.29 in10.0 miWSW (250°)12.7 mphOvercast
6:53 PM16.0 °F7.0 °F68 %30.30 in10.0 miWSW (250°)11.5 mphOvercast
7:53 PM15.1 °F9.0 °F77 %30.30 in9.0 miWSW (250°)8.1 mphOvercast
8:53 PM15.1 °F9.0 °F77 %30.31 in6.0 miSW (230°)8.1 mph0.00 inSnowLight Snow
9:37 PM15.8 °F10.4 °F79 %30.27 in2.5 miWSW (240°)6.9 mph0.00 inSnowLight Snow
9:45 PM15.8 °F10.4 °F79 %30.27 in2.0 miWSW (250°)8.1 mph0.00 inSnowLight Snow
9:53 PM15.1 °F10.0 °F80 %30.32 in1.5 miWSW (250°)6.9 mph0.00 inSnowLight Snow
10:53 PM15.1 °F10.9 °F84 %30.34 in1.8 miWest (260°)8.1 mph0.00 inSnowLight Snow
11:05 PM15.8 °F10.4 °F79 %30.29 in2.0 miWest (260°)8.1 mph0.00 inSnowLight Snow
11:17 PM15.8 °F10.4 °F79 %30.29 in1.5 miWSW (250°)5.8 mph0.00 inSnowLight Snow
11:42 PM15.8 °F10.4 °F79 %30.29 in2.0 miWSW (250°)4.6 mph0.01 inSnowLight Snow
11:53 PM15.1 °F12.0 °F88 %30.34 in2.0 miWest (260°)6.9 mph0.01 inSnowLight Snow
Hourly data recorded from KARB, located miles away from Ann Arbor, Michigan







STORIES FROM OUR PARTNERS